Weather History for Nagpur Sonegaon, India

Change the Weather History Date:

Tuesday, May 21, 2013

  Actual Average Record
Temperature  
Mean Temperature 100 °F -  
Max Temperature 118 °F 102 °F - ()
Min Temperature 83 °F 80 °F - ()
Cooling Degree Days 36    
Growing Degree Days 50 (Base 50)    
Moisture  
Dew Point 46 °F    
Average Humidity 15    
Maximum Humidity 31    
Minimum Humidity 7    
Precipitation  
Precipitation 0.00 in 0.16 in - ()
Sea Level Pressure  
Sea Level Pressure 29.60 in    
Wind  
Wind Speed 4 mph ()    
Max Wind Speed 12 mph    
Max Gust Speed -    
Visibility 3.1 miles    
Events      
T = Trace of Precipitation, MM = Missing Value Source: Averaged Metar Reports

Daily Weather History Graph

Daily Weather History Graph

Search for Another Location

Airport:

Trip Planner

Search our weather history database for the weather conditions in past years. The results will help you decide how hot, cold, wet, or windy it might be!

Date:

Astronomy

May. 21, 2013 Rise Set
Actual Time 5:33 AM IST 6:47 PM IST
Civil Twilight 5:09 AM IST 7:11 PM IST
Nautical Twilight 4:41 AM IST 7:39 PM IST
Astronomical Twilight 4:11 AM IST 8:09 PM IST
Moon 2:57 PM IST 2:13 AM IST
Length of Visible Light 14h 01m
Length of Day
13h 13m
Waxing Gibbous, 80% of the Moon is Illuminated
May 21
Waxing Gibbous
May 25
Full
Jun 1
Last Quarter
Jun 8
New
Jun 16
First Quarter

Hourly Weather History & Observations

Time (IST) Temp. Dew Point Humidity Pressure Visibility Wind Dir Wind Speed Gust Speed Precip Events Conditions
12:10 AM 91.4 °F 41.0 °F 17% 29.59 in 3.1 mi Calm Calm - N/A   Haze
1:10 AM 91.4 °F 41.0 °F 17% 29.59 in 3.1 mi NW 3.5 mph - N/A   Haze
2:10 AM 89.6 °F 39.2 °F 17% 29.59 in 3.1 mi NW 3.5 mph - N/A   Haze
2:30 AM 90 °F 58 °F 24% 29.54 in 2 mi NW 3.5 mph - -   Haze
3:10 AM 87.8 °F 37.4 °F 17% 29.56 in 3.1 mi Calm Calm - N/A   Haze
5:10 AM 86.0 °F 42.8 °F 22% 29.62 in 3.1 mi Calm Calm - N/A   Haze
5:30 AM 85 °F 59 °F 31% 29.57 in 2 mi Calm Calm - -   Haze
6:10 AM 86.0 °F 44.6 °F 23% 29.65 in 3.1 mi Calm Calm - N/A   Haze
6:40 AM 87.8 °F 44.6 °F 22% 29.65 in 3.1 mi Calm Calm - N/A   Haze
7:10 AM 89.6 °F 46.4 °F 22% 29.65 in 3.1 mi NW 3.5 mph - N/A   Haze
7:40 AM 91.4 °F 46.4 °F 21% 29.68 in 3.1 mi NW 5.8 mph - N/A   Haze
8:10 AM 91.4 °F 46.4 °F 21% 29.68 in 3.1 mi NW 4.6 mph - N/A   Haze
8:30 AM 101 °F 62 °F 19% 29.60 in 2 mi NW 5.8 mph - -   Haze
8:40 AM 96.8 °F 46.4 °F 18% 29.68 in 3.7 mi NW 8.1 mph - N/A   Unknown
9:10 AM 100.4 °F 46.4 °F 16% 29.68 in 3.7 mi NW 10.4 mph - N/A   Unknown
9:40 AM 102.2 °F 48.2 °F 16% 29.68 in 3.7 mi NW 11.5 mph - N/A   Unknown
10:10 AM 104.0 °F 48.2 °F 15% 29.68 in 3.7 mi NW 11.5 mph - N/A   Unknown
10:40 AM 104.0 °F 48.2 °F 15% 29.68 in 3.7 mi NNW 10.4 mph - N/A   Unknown
11:10 AM 107.6 °F 48.2 °F 14% 29.68 in 3.7 mi NNE 8.1 mph - N/A   Unknown
11:30 AM 113 °F 61 °F 12% 29.56 in 2 mi SSW 6.9 mph - -  
12:10 PM 114.8 °F 39.2 °F 8% 29.65 in 3.7 mi North 8.1 mph - N/A   Unknown
12:40 PM 113.0 °F 37.4 °F 8% 29.65 in 3.7 mi NE 8.1 mph - N/A   Partly Cloudy
1:10 PM 114.8 °F 39.2 °F 8% 29.62 in 3.7 mi East 5.8 mph - N/A   Partly Cloudy
1:40 PM 114.8 °F 39.2 °F 8% 29.62 in 3.7 mi East 6.9 mph - N/A   Partly Cloudy
2:10 PM 116.6 °F 39.2 °F 7% 29.59 in 3.7 mi ESE 4.6 mph - N/A   Partly Cloudy
2:30 PM 118 °F 65 °F 12% 29.47 in 2 mi North 9.2 mph - -   Scattered Clouds
2:40 PM 116.6 °F 39.2 °F 7% 29.56 in 3.7 mi NNW 10.4 mph - N/A   Partly Cloudy
3:10 PM 116.6 °F 41.0 °F 8% 29.56 in 3.7 mi North 6.9 mph - N/A   Partly Cloudy
3:40 PM 116.6 °F 39.2 °F 7% 29.53 in 3.7 mi NW 9.2 mph - N/A   Partly Cloudy
4:40 PM 113.0 °F 41.0 °F 9% 29.53 in 3.7 mi North 4.6 mph - N/A   Scattered Clouds
5:10 PM 114.8 °F 41.0 °F 8% 29.53 in 3.7 mi NNE 3.5 mph - N/A   Scattered Clouds
5:30 PM 113 °F 65 °F 14% 29.44 in 2 mi NNE 4.6 mph - -   Haze
6:10 PM 113.0 °F 41.0 °F 9% 29.53 in 3.1 mi NNW 10.4 mph - N/A   Haze
6:40 PM 111.2 °F 39.2 °F 9% 29.56 in 3.1 mi NNW 10.4 mph - N/A   Haze
7:10 PM 109.4 °F 35.6 °F 8% 29.56 in 3.1 mi NNW 9.2 mph - N/A   Haze
8:10 PM 105.8 °F 37.4 °F 10% 29.59 in 3.1 mi NW 9.2 mph - N/A   Haze
8:30 PM 104 °F 60 °F 16% 29.50 in 2 mi NW 9.2 mph - -   Haze
9:10 PM 102.2 °F 39.2 °F 11% 29.62 in 3.1 mi NW 5.8 mph - N/A   Haze
10:10 PM 100.4 °F 39.2 °F 12% 29.65 in 3.1 mi NW 5.8 mph - N/A   Haze
10:40 PM 98.6 °F 42.8 °F 15% 29.62 in 3.1 mi NW 6.9 mph - N/A   Haze
11:10 PM 98.6 °F 41.0 °F 14% 29.62 in 3.1 mi NW 2.3 mph - N/A   Haze
11:30 PM 99 °F 63 °F 22% 29.54 in 2 mi NW 4.6 mph - -   Haze